Tracking 19794 objects as of 21-Jul-2019
HD Live streaming from Space Station
objects crossing your sky now

FENGYUN 1C DEB

Track FENGYUN 1C DEB now!
10-day predictions


NORAD ID: 32425
Int'l Code: 1999-025DAM
Perigee: 681.5 km
Apogee: 1,041.9 km
Inclination: 96.7 °
Period: 102.0 minutes
Semi major axis: 7232 km
RCS: 0.003 m2 (small)
Launch date: May 10, 1999
Source: People's Republic of China (PRC)
Launch site: Taiyaun Space Center, China (TSC)

Note: This is SATELLITE DEBRIS
aabbcc
Your satellite tracking list
Your tracking list is empty




NASA's NSSDC Master Catalog

Two Line Element Set (TLE):
1 32425U 99025DAM 19201.14820252 +.00000230 +00000-0 +10535-3 0  9990
2 32425 096.6993 178.1957 0249155 110.4469 252.3649 14.11413848365245
Source of the keplerian elements: AFSPC